Tracking 29892 objects as of 21-Nov-2024
HD Live streaming from Space Station
objects crossing your sky now

STARLINK-2035

Track STARLINK-2035 now!
10-day predictions
STARLINK-2035 is classified as:


NORAD ID: 47651
Int'l Code: 2021-012AH
Perigee: 553.2 km
Apogee: 555.1 km
Inclination: 53.1 °
Period: 95.6 minutes
Semi major axis: 6925 km
RCS: Unknown
Launch date: February 16, 2021
Source: United States (US)
Launch site: AIR FORCE EASTERN TEST RANGE (AFETR)
Your satellite tracking list
Your tracking list is empty




NASA's NSSDC Master Catalog

Two Line Element Set (TLE):
1 47651U 21012AH  24325.61343739  .00024766  00000-0  16727-2 0  9991
2 47651  53.0530  39.8746 0001347  82.3103 277.8038 15.06466901208531
Source of the keplerian elements: AFSPC